Regional Weather Roundup
Issued by NWS San Diego, CA

Home | Current Version | Previous Version | Text Only | Print | Product List | Glossary On
Versions: 1 2 3 4 5 6 7 8 9 10 11 12 13 14 15 16 17 18 19 20 21 22 23 24 25 26 27 28 29 30 31 32 33 34 35 36 37 38 39 40 41 42 43 44 45 46 47 48 49 50
000
ASUS46 KSGX 281911
RWRSGX

SAN DIEGO HOURLY WEATHER ROUNDUP
NATIONAL WEATHER SERVICE SAN DIEGO CA
1200 PM PDT FRI AUG 28 2015

NOTE: "FAIR" INDICATES FEW OR NO CLOUDS BELOW 12,000 FEET WITH NO
SIGNIFICANT WEATHER AND/OR OBSTRUCTIONS TO VISIBILITY.

CAZ042-043-060-061-PZZ750-775-282000-

GREATER SAN DIEGO AREA

CITY           SKY/WX    TMP DP  RH WIND       PRES   REMARKS
LINDBERGH FLD  MOSUNNY   88  66  48 SW6       29.88F
POINT LOMA       N/A     83  71  68 W13         N/A
NATIONAL CITY    N/A     83  73  71 SW7       29.88F
CHULA VISTA      N/A     86  71  61 W3        29.81F
IMPERIAL BEACH SUNNY     82  70  66 SW10      29.89F
BROWN FIELD    SUNNY     93  63  36 NW7       29.89F
MIRAMAR MCAS   MOSUNNY   99  63  30 SW9       29.88F HX 101
MONTGOMERY FLD SUNNY     93  64  38 W8        29.89F

$$

NORTH SAN DIEGO COUNTY

CITY           SKY/WX    TMP DP  RH WIND       PRES   REMARKS
CAMP PENDLETON SUNNY     92  58  31 SW8       29.86F
OCEANSIDE AP   SUNNY     88  62  41 SW12      29.86F
OCEANSIDE HBR    N/A     78  70  77 W8        29.90F
VISTA            N/A     93  65  38 W5        29.85F HX  95
CARLSBAD       SUNNY     84  66  54 W10       29.88F
DEL MAR          N/A     80  73  78 W5        29.90F
FALLBROOK        N/A     99  41  13 S5        29.85F HX  95
ESCONDIDO        N/A    101  60  25 SE2       29.87F HX 102
SAN MARCOS       N/A     93  66  40 W9        29.85F HX  96
POWAY            N/A    101  57  23 CALM      29.86F HX 100

$$

EAST SAN DIEGO COUNTY

CITY           SKY/WX    TMP DP  RH WIND       PRES   REMARKS
RAMONA         SUNNY    100  48  17 W9        29.93F HX  96
SANTEE LAKES     N/A     99  60  27 S7        29.84F HX 100
LA MESA          N/A     94  65  38 W3        29.80F HX  97
JAMUL            N/A     98  60  28 NW6       29.85F HX  98
DESCANSO N       N/A     95  51  22 W10       29.76F
CAMPO            N/A     97  52  21 SW16      29.97F

$$

ORANGE COUNTY AND THE LOS ANGELES BASIN

CITY           SKY/WX    TMP DP  RH WIND       PRES   REMARKS
JOHN WAYNE AP  MOSUNNY   91  57  31 W6        29.87F
LAGUNA BEACH     N/A     84  70  62 S3        29.84F
LAKE FOREST FR   N/A     97  49  19 CALM      29.77F
SANTA ANA        N/A     96  67  38 SW1       29.82F HX 100
HUNTINGTON BCH   N/A     86  70  59 SW1       29.90F
LOS ALAMITOS   SUNNY     91  62  36 VRB7      29.88F
FULLERTON      SUNNY     97  55  24 VRB5      29.86F HX  95
LONG BEACH     SUNNY     93  63  36 SW8       29.88F
L.A. AP        MOSUNNY   85  67  54 SW8       29.89F
L.A. DOWNTOWN  SUNNY     96  58  27 CALM      29.87F HX  95

$$

THE INLAND EMPIRE

CITY           SKY/WX    TMP DP  RH WIND       PRES   REMARKS
CORONA         SUNNY     99  55  22 W9        29.88F HX  97
CHINO          MOSUNNY  100  52  19 VRB6      29.90F HX  97
ONTARIO        MOSUNNY   98  48  18 SW8       29.91F
SAN BERNARDINO SUNNY     99  45  15 W7        29.91F
RIVERSIDE AP   SUNNY     98  51  20 MISG      29.90F HX  95
MORENO VALLEY    N/A     99  52  20 CALM      29.92F HX  96
MARCH ARB      SUNNY     99  48  17 W5        29.93F HX  96
HORSETHIEF CYN   N/A     99  45  15 W2        29.89F HX  95
PERRIS           N/A    100  46  15 CALM      29.94F HX  96
MENIFEE          N/A     99  48  17 SW3       29.97F HX  95
HEMET EAST       N/A     96  46  17 CALM      29.88F
FRENCH VALLEY  FAIR      99  48  18 SW3       29.92F HX  95
TEMECULA         N/A     99  48  18 W3        29.86F HX  95

$$

SAN BERNARDINO AND RIVERSIDE COUNTY MOUNTAINS

CITY           SKY/WX    TMP DP  RH WIND       PRES   REMARKS
BIG BEAR AP    SUNNY     77  41  27 NE9G16    30.34S
ANGELUS OAKS     N/A     83  53  35 W1        29.79F
PINE COVE        N/A     80  49  33 CALM      29.89F

$$

SOUTHERN DESERT INCLUDING THE COACHELLA VALLEY

CITY           SKY/WX    TMP DP  RH WIND       PRES   REMARKS
PALM SPRINGS   MOSUNNY  105  58  21 E5        29.86F HX 105
THOUSAND PALMS   N/A    102  60  24 SE3       29.82F HX 103
PALM DESERT      N/A    107  63  24 CALM      30.52S HX 109
THERMAL        SUNNY    103  65  29 CALM      29.79F HX 106
BLYTHE         SUNNY    105  62  24 NE6       29.84F HX 107
IMPERIAL AP    SUNNY    106  64  25 S7        29.80F HX 109
EL CENTRO NAS  MOSUNNY  105  59  22 E5        29.82F HX 105
YUMA AZ        MOSUNNY  107  61  22 CALM      29.82F HX 109
MEXICALI       SUNNY    104  64  27 SE7       29.83F HX 107

$$

UPPER DESERT

CITY           SKY/WX    TMP DP  RH WIND       PRES   REMARKS
VICTORVILLE AP SUNNY     97  39  13 CALM      30.03F
HESPERIA         N/A     96  47  18 CALM      29.95F
APPLE VALLEY     N/A     99  44  15 S1        30.04F HX  95
PALMDALE       SUNNY     96  40  14 VRB6      30.01F
LANCASTER      SUNNY     99  41  13 VRB3      29.99F
EDWARDS AFB    PTSUNNY   97  38  12 N3        29.97F
DAGGETT        SUNNY    100  34  10 VRB5      29.96F
29 PALMS N     MOSUNNY   99  50  19 S5        30.03F HX  96
NEEDLES        SUNNY    106  55  18 VRB5      29.88F HX 105

$$

REGIONAL REPORTS

CITY           SKY/WX    TMP DP  RH WIND       PRES   REMARKS
SANTA BARBARA  SUNNY     84  61  45 S6        29.89F
SANDBERG       SUNNY     95  40  14 S10G21    30.18F
LAS VEGAS NV   MOSUNNY   98  52  21 CALM      29.95F HX  95
PHOENIX AZ     MOSUNNY   98  59  27 CALM      29.89F HX  98
TIJUANA        SUNNY     93  50  22 W10       29.91F
ENSENADA NW      N/A     75  32  20 W12       29.87F

$$

OFFSHORE ISLANDS

CITY           SKY/WX    TMP DP  RH WIND       PRES   REMARKS
CATALINA ARPT  SUNNY     87  54  32 N5        29.98F
SAN CLEMENTE I MOSUNNY   79  68  68 NW3       29.88F
SAN NICOLAS IS SUNNY    N/A N/A N/A NE6       29.91F

$$

MARINE AND OFFSHORE BUOY REPORTS

STATION/POSITION SKY/WX   TEMP    WIND        PRES    SWELL
                          AIR SEA DIR/SP/G            HT/PER/DIR
                          (F)     (DEG/KT/KT) (MB)    (FT/S/D)
TANNER BANKS               69 70  310/ 10/ 12 1012.3F   5/220/15
S CLEMENTE BASIN           71 75  220/  4/  4 1012.1F   3/200/16
SO. S. ROSA ISLA           69 69  300/  4/  6 1011.8S   3/15
W. S. BARBARA CH           69 70  340/  4/  4 1012.0R   3/280/15
M. S. BARBARA CH           72 70  130/  2/  4 1013.0R
S. MONICA BASIN            74 75  320/  2/  2 1012.2F   2/270/15
S PEDRO CHANNEL               74                N/A     2/260/15
DANA POINT                    74                N/A     2/200/15
OCEANSIDE OFFSHR              76                N/A     2/200/15
TORREY PINES OTR              76                N/A     2/220/15
MISSION BAY BUOY              77                N/A     2/220/15
POINT LOMA SOUTH              75                N/A     3/210/15

$$



USA.gov is the U.S. government's official web portal to all federal, state and local government web resources and services.